Melfa, VA

9:47 AM EST on February 06, 2016 (GMT -0500)
Accomack County

Weather History for KMFV - October, 2011

Change the Weather History Date:

Saturday, October 22, 2011

  Actual Average (KWAL) Record (KWAL)
Temperature  
Mean Temperature 54 °F 57 °F  
Max Temperature 60 °F 66 °F 79 °F (2001)
Min Temperature 46 °F 48 °F 30 °F (1974)
Degree Days  
Heating Degree Days 11    
Month to date heating degree days  
Since 1 July heating degree days  
Cooling Degree Days 0    
Month to date cooling degree days  
Year to date cooling degree days  
Growing Degree Days 4 (Base 50)    
Moisture  
Dew Point 46 °F    
Average Humidity 75    
Maximum Humidity 94    
Minimum Humidity 55    
Precipitation  
Precipitation 0.00 in 0.10 in 0.08 in (1997)
Month to date precipitation 2.22  
Year to date precipitation 33.59  
Sea Level Pressure  
Sea Level Pressure 30.12 in    
Wind  
Wind Speed 2 mph (North)    
Max Wind Speed 12 mph    
Max Gust Speed 16 mph    
Visibility 10 miles    
Events      
T = Trace of Precipitation, MM = Missing Value Source: NWS Daily Summary

Daily Weather History Graph

Daily Weather History Graph

Search for Another Location

Airport or City:

Trip Planner

Search our weather history database for the weather conditions in past years. The results will help you decide how hot, cold, wet, or windy it might be!

Date:

Astronomy

Oct. 22, 2011 Rise Set
Actual Time 7:17 AM EDT 6:16 PM EDT
Civil Twilight 6:51 AM EDT 6:43 PM EDT
Nautical Twilight 6:20 AM EDT 7:13 PM EDT
Astronomical Twilight 5:50 AM EDT 7:44 PM EDT
Moon 2:18 AM EDT (10/22) 3:28 PM EDT (10/22)
Length of Visible Light 11h 52m
Length of Day
10h 58m
Waning Crescent, 24% of the Moon is Illuminated
Oct 22
Waning Crescent
Oct 26
New
Nov 2
First Quarter
Nov 10
Full
Nov 18
Last Quarter

Hourly Weather History & Observations

Time (EDT) Temp. Windchill Dew Point Humidity Pressure Visibility Wind Dir Wind Speed Gust Speed Precip Events Conditions
12:15 AM 50.0 °F - 48.2 °F 94% 30.10 in 10.0 mi Calm Calm - N/A   Unknown
12:35 AM 51.8 °F - 48.2 °F 88% 30.10 in 10.0 mi Calm Calm - N/A   Unknown
12:55 AM 51.8 °F - 48.2 °F 88% 30.11 in 10.0 mi Calm Calm - N/A   Unknown
1:15 AM 51.8 °F - 48.2 °F 88% 30.11 in 10.0 mi NE 3.5 mph - N/A   Unknown
1:35 AM 51.8 °F - 48.2 °F 88% 30.11 in 10.0 mi NE 3.5 mph - N/A   Unknown
1:55 AM 51.8 °F - 46.4 °F 82% 30.11 in 10.0 mi ENE 3.5 mph - N/A   Unknown
2:15 AM 51.8 °F - 46.4 °F 82% 30.11 in 10.0 mi Calm Calm - N/A   Unknown
2:35 AM 51.8 °F - 46.4 °F 82% 30.11 in 10.0 mi NE 4.6 mph - N/A   Unknown
3:15 AM 51.8 °F - 46.4 °F 82% 30.11 in 10.0 mi NNE 3.5 mph - N/A   Unknown
3:35 AM 51.8 °F - 46.4 °F 82% 30.10 in 10.0 mi NE 3.5 mph - N/A   Unknown
3:55 AM 51.8 °F - 46.4 °F 82% 30.10 in 10.0 mi Calm Calm - N/A   Unknown
4:15 AM 50.0 °F - 44.6 °F 82% 30.10 in 10.0 mi NNE 3.5 mph - N/A   Unknown
4:35 AM 48.2 °F - 46.4 °F 93% 30.11 in 10.0 mi Calm Calm - N/A   Unknown
4:55 AM 50.0 °F - 46.4 °F 87% 30.11 in 10.0 mi Calm Calm - N/A   Unknown
5:15 AM 50.0 °F - 46.4 °F 87% 30.11 in 10.0 mi Calm Calm - N/A   Unknown
5:35 AM 51.8 °F - 46.4 °F 82% 30.12 in 10.0 mi North 4.6 mph - N/A   Unknown
5:55 AM 50.0 °F - 46.4 °F 87% 30.12 in 10.0 mi Calm Calm - N/A   Unknown
6:15 AM 50.0 °F - 46.4 °F 87% 30.12 in 10.0 mi Calm Calm - N/A   Unknown
6:35 AM 50.0 °F - 46.4 °F 87% 30.12 in 10.0 mi Calm Calm - N/A   Unknown
7:35 AM 50.0 °F - 46.4 °F 87% 30.13 in 10.0 mi Calm Calm - N/A   Unknown
7:55 AM 51.8 °F - 46.4 °F 82% 30.14 in 10.0 mi Calm Calm - N/A   Unknown
8:15 AM 51.8 °F - 46.4 °F 82% 30.14 in 10.0 mi East 3.5 mph - N/A   Unknown
8:35 AM 51.8 °F - 46.4 °F 82% 30.14 in 10.0 mi Calm Calm - N/A   Unknown
8:55 AM 53.6 °F - 46.4 °F 77% 30.15 in 10.0 mi Calm Calm - N/A   Unknown
9:15 AM 53.6 °F - 46.4 °F 77% 30.15 in 10.0 mi Calm Calm - N/A   Unknown
9:35 AM 53.6 °F - 46.4 °F 77% 30.15 in 10.0 mi NNE 4.6 mph - N/A   Unknown
9:55 AM 55.4 °F - 46.4 °F 72% 30.16 in 10.0 mi North 3.5 mph - N/A   Unknown
10:15 AM 55.4 °F - 46.4 °F 72% 30.16 in 10.0 mi NNE 4.6 mph - N/A   Unknown
10:35 AM 57.2 °F - 46.4 °F 67% 30.15 in 10.0 mi North 5.8 mph - N/A   Unknown
10:55 AM 59.0 °F - 46.4 °F 63% 30.15 in 10.0 mi NNE 5.8 mph - N/A   Unknown
11:35 AM 59.0 °F - 44.6 °F 59% 30.15 in 10.0 mi NNW 4.6 mph - N/A   Unknown
11:55 AM 60.8 °F - 46.4 °F 59% 30.15 in 10.0 mi NW 5.8 mph - N/A   Unknown
12:15 PM 60.8 °F - 44.6 °F 55% 30.14 in 10.0 mi North 6.9 mph - N/A   Unknown
12:35 PM 60.8 °F - 46.4 °F 59% 30.14 in 10.0 mi NW 6.9 mph - N/A   Unknown
12:55 PM 60.8 °F - 46.4 °F 59% 30.13 in 10.0 mi NW 4.6 mph - N/A   Unknown
1:15 PM 60.8 °F - 46.4 °F 59% 30.12 in 10.0 mi NW 11.5 mph 16.1 mph N/A   Unknown
1:35 PM 60.8 °F - 46.4 °F 59% 30.11 in 10.0 mi North 5.8 mph - N/A   Unknown
2:15 PM 60.8 °F - 46.4 °F 59% 30.11 in 10.0 mi NNW 8.1 mph - N/A   Unknown
2:35 PM 60.8 °F - 46.4 °F 59% 30.11 in 10.0 mi WNW 6.9 mph - N/A   Unknown
2:55 PM 60.8 °F - 46.4 °F 59% 30.10 in 10.0 mi NW 5.8 mph - N/A   Unknown
3:15 PM 60.8 °F - 46.4 °F 59% 30.10 in 10.0 mi NNW 8.1 mph - N/A   Unknown
3:35 PM 60.8 °F - 46.4 °F 59% 30.10 in 10.0 mi WNW 5.8 mph - N/A   Unknown
3:55 PM 60.8 °F - 44.6 °F 55% 30.10 in 10.0 mi NNW 5.8 mph - N/A   Unknown
4:15 PM 59.0 °F - 44.6 °F 59% 30.09 in 10.0 mi NW 5.8 mph - N/A   Unknown
4:35 PM 59.0 °F - 44.6 °F 59% 30.10 in 10.0 mi NNW 5.8 mph - N/A   Unknown
4:55 PM 59.0 °F - 44.6 °F 59% 30.10 in 10.0 mi NNW 3.5 mph - N/A   Unknown
5:15 PM 59.0 °F - 44.6 °F 59% 30.10 in 10.0 mi NNW 4.6 mph - N/A   Unknown
5:35 PM 57.2 °F - 44.6 °F 63% 30.10 in 10.0 mi NNW 5.8 mph - N/A   Unknown
5:55 PM 57.2 °F - 44.6 °F 63% 30.10 in 10.0 mi Calm Calm - N/A   Unknown
6:15 PM 53.6 °F - 46.4 °F 77% 30.10 in 10.0 mi Calm Calm - N/A   Unknown
6:35 PM 51.8 °F - 46.4 °F 82% 30.11 in 10.0 mi Calm Calm - N/A   Unknown
6:55 PM 50.0 °F - 46.4 °F 87% 30.11 in 10.0 mi Calm Calm - N/A   Unknown
7:15 PM 48.2 °F - 44.6 °F 87% 30.11 in 10.0 mi Calm Calm - N/A   Unknown
7:35 PM 48.2 °F - 44.6 °F 87% 30.12 in 10.0 mi Calm Calm - N/A   Unknown
7:55 PM 48.2 °F - 44.6 °F 87% 30.12 in 10.0 mi Calm Calm - N/A   Unknown
8:15 PM 46.4 °F - 44.6 °F 93% 30.12 in 10.0 mi Calm Calm - N/A   Unknown
8:35 PM 46.4 °F - 44.6 °F 93% 30.12 in 10.0 mi Calm Calm - N/A   Unknown
8:55 PM 46.4 °F - 42.8 °F 87% 30.12 in 10.0 mi Calm Calm - N/A   Unknown
9:15 PM 44.6 °F 43.1 °F 42.8 °F 93% 30.12 in 10.0 mi SSE 3.5 mph - N/A   Unknown
9:55 PM 44.6 °F - 42.8 °F 93% 30.13 in 10.0 mi Calm Calm - N/A   Unknown
10:15 PM 44.6 °F - 42.8 °F 93% 30.13 in 10.0 mi Calm Calm - N/A   Unknown
10:35 PM 44.6 °F - 42.8 °F 93% 30.13 in 10.0 mi Calm Calm - N/A   Unknown
10:55 PM 44.6 °F - 42.8 °F 93% 30.13 in 10.0 mi Calm Calm - N/A   Unknown
11:15 PM 44.6 °F - 42.8 °F 93% 30.12 in 7.0 mi Calm Calm - N/A   Unknown
11:35 PM 42.8 °F 41.1 °F 42.8 °F 100% 30.12 in 7.0 mi ENE 3.5 mph - N/A   Unknown
11:55 PM 42.8 °F 41.1 °F 42.8 °F 100% 30.12 in 7.0 mi ENE 3.5 mph - N/A   Unknown